User: anonymous   Login
Location: ?????????
(53.2086°N, 54.0693°E)
Time: 00:23:41
(UTC+00:00)
Language:

Cosmos 1992 Rocket - Orbit

View from above orbital plane
View from above orbital plane
View from above satellite
View from above satellite

Ground track
Ground track

The orbit data is extracted from the following two-line orbital elements,

1 19770U 89005B   20047.46448038 +.00000027 +00000-0 +17477-4 0  9995
2 19770 074.0442 053.5290 0006230 255.0643 213.8683 14.38823245626406
Epoch (UTC): 16 February 2020 11:08:51
Eccentricity: 0.0006230
inclination: 74.0442°
perigee height: 758 km
apogee height: 767 km
right ascension of ascending node: 53.5290°
argument of perigee: 255.0643°
revolutions per day: 14.38823245
mean anomaly at epoch: 213.8683°
orbit number at epoch: 62640

The dashed part of the orbit path shows where the satellite is in the earth's shadow,  

DLR